Location: Harwich
(41.7160°N, 69.9939°W)
Time: 14:48:23
(UTC+02:00)

RS-15 - Visible Passes

Search period start: 17 September 2024 00:00
Search period end: 27 September 2024 00:00
Orbit: 1898 x 2146 km, 64.8° (Epoch: 16 September)

Date Brightness Start Highest point End Pass type
(mag) Time Alt. Az. Time Alt. Az. Time Alt. Az.
17 Sep 8.4 02:01:32 10° SW 02:13:09 67° NW 02:24:18 10° NNE visible
17 Sep 9.6 04:19:01 10° WNW 04:28:09 26° NNW 04:37:04 10° NNE visible
17 Sep 9.6 06:37:28 10° NW 06:45:44 23° NNE 06:53:53 10° ENE visible
17 Sep 8.6 08:50:58 10° NNW 09:01:37 51° NE 09:12:09 10° ESE visible
17 Sep 8.0 11:03:37 10° NW 11:13:58 51° WSW 11:24:24 10° S visible
18 Sep 8.2 01:25:13 10° SW 01:36:59 82° WNW 01:48:15 10° NNE visible
18 Sep 9.4 03:41:34 10° W 03:51:18 31° NNW 04:00:45 10° NNE visible
18 Sep 9.7 06:00:39 10° NW 06:08:39 21° N 06:16:32 10° NE visible
18 Sep 8.8 08:14:53 10° NNW 08:25:09 41° NE 08:35:18 10° ESE visible
18 Sep 7.8 10:27:23 10° NW 10:38:09 66° WSW 10:48:58 10° SSE visible
19 Sep 8.1 00:49:11 10° SSW 01:00:55 82° ESE 01:12:10 10° NE visible
19 Sep 9.3 03:04:15 10° W 03:14:33 36° NW 03:24:34 10° NNE visible
19 Sep 9.7 05:23:34 10° NW 05:31:31 21° N 05:39:20 10° NE visible
19 Sep 9.1 07:38:45 10° NNW 07:48:33 34° NE 07:58:14 10° E visible
19 Sep 7.8 09:51:14 10° NW 10:02:13 83° WSW 10:13:13 10° SSE visible
20 Sep 9.0 02:27:09 10° WSW 02:37:59 43° NW 02:48:27 10° NNE visible
20 Sep 9.7 04:46:16 10° NW 04:54:24 22° N 05:02:22 10° NE visible
20 Sep 9.3 07:02:31 10° NNW 07:11:48 29° NNE 07:20:58 10° E visible
20 Sep 7.9 09:15:09 10° NNW 09:26:10 79° NE 09:37:11 10° SE visible
20 Sep 8.5 11:28:47 10° NW 11:37:17 27° WSW 11:45:52 10° SSW visible
21 Sep 8.8 01:50:17 10° WSW 02:01:32 53° NW 02:12:24 10° NNE visible
21 Sep 9.7 04:08:48 10° WNW 04:17:19 23° NNW 04:25:40 10° NE visible
21 Sep 9.4 06:26:09 10° NNW 06:34:56 26° NNE 06:43:34 10° ENE visible
21 Sep 8.1 08:39:05 10° NNW 08:50:00 64° NE 09:00:53 10° SE visible
21 Sep 8.2 10:52:08 10° NW 11:01:41 37° WSW 11:11:20 10° S visible
22 Sep 8.5 01:13:39 10° SW 01:25:13 65° NW 01:36:21 10° NNE visible
22 Sep 9.6 03:31:17 10° WNW 03:40:19 26° NNW 03:49:09 10° NNE visible
22 Sep 9.5 05:49:36 10° NW 05:57:56 23° NNE 06:06:08 10° ENE visible
22 Sep 8.4 08:03:02 10° NNW 08:13:42 52° NE 08:24:18 10° ESE visible
22 Sep 8.0 10:15:43 10° NW 10:25:59 49° WSW 10:36:20 10° S visible
23 Sep 9.5 02:53:50 10° W 03:03:27 30° NNW 03:12:50 10° NNE visible
23 Sep 9.6 05:12:49 10° NW 05:20:51 22° N 05:28:45 10° NE visible
23 Sep 8.7 07:26:57 10° NNW 07:37:16 43° NE 07:47:29 10° ESE visible
23 Sep 7.8 09:39:27 10° NW 09:50:10 64° WSW 10:00:57 10° SSE visible
23 Sep 9.1 11:56:52 10° WNW 12:00:07 12° W 12:03:23 10° WSW visible
24 Sep 9.3 02:16:29 10° W 02:26:42 35° NW 02:36:38 10° NNE visible
24 Sep 9.7 04:35:48 10° NW 04:43:44 21° N 04:51:32 10° NE visible
24 Sep 8.9 06:50:49 10° NNW 07:00:41 35° NE 07:10:26 10° E visible
24 Sep 7.7 09:03:18 10° NW 09:14:15 81° WSW 09:25:15 10° SSE visible
24 Sep 8.8 11:18:11 10° WNW 11:24:44 18° W 11:31:22 10° SW visible
25 Sep 9.1 01:39:21 10° WSW 01:50:06 42° NW 02:00:30 10° NNE visible
25 Sep 9.7 03:58:32 10° NW 04:06:36 22° N 04:14:32 10° NE visible
25 Sep 9.2 06:14:36 10° NNW 06:23:58 30° NNE 06:33:12 10° E visible
25 Sep 7.8 08:27:12 10° NNW 08:38:14 82° ENE 08:49:15 10° SE visible
25 Sep 8.5 10:40:58 10° NW 10:51:15 25° WSW 10:57:39 10° SSW visible
26 Sep 8.9 01:02:27 10° WSW 01:13:38 51° NW 01:24:26 10° NNE visible
26 Sep 9.6 03:21:05 10° WNW 03:29:31 23° NNW 03:37:47 10° NE visible
26 Sep 9.3 05:38:15 10° NNW 05:47:06 26° NNE 05:54:32 13° ENE visible
26 Sep 8.0 07:51:08 10° NNW 08:13:07 10° SE 08:02:03 66° NE visible
26 Sep 8.7 10:04:15 10° NW 10:21:09 16° SSW 10:23:12 10° SSW visible
